Effective Sunday, March 17, 2024, the National Weather Service National Data Buoy Center will discontinue its Dial-A-Buoy Interactive Voice Response system. For more information, see Service Change Notice 24-06 (PDF).

Station FRDF1 - 8720030 - Fernandina Beach, FL Image indicating link to RSS feed of recent meteorological observations for station FRDF1


Conditions at FRDF1 as of
(2:18 am EST)
0718 GMT on 03/02/2024:
     

Click on the graph icon in the table below to see a time series plot of the last five days of that observation.

5-day plot - Wind Direction Wind Direction (WDIR): E ( 80 deg true )
5-day plot - Wind Speed Wind Speed (WSPD):1.0 m/s
5-day plot - Wind Gust Wind Gust (GST):1.0 m/s
5-day plot - Atmospheric Pressure Atmospheric Pressure (PRES):1020.8 mb
5-day plot - Air Temperature Air Temperature (ATMP): 18.2 °C
5-day plot - Water Temperature Water Temperature (WTMP): 15.3 °C
5-day plot - Wind Speed at 10 Meters Wind Speed at 10 meters (WSPD10M): 1 m/s
5-day plot - Wind Speed at 20 Meters Wind Speed at 20 meters (WSPD20M): 1 m/s
5-day plot -  Wind Speed, Wind Gust and Atmospheric Pressure Combined plot of Wind Speed, Gust, and Air Pressure
NOS Water Level Observation Network Water Level
Previous observations
TIME
(EST)
5-day plot - Wind Direction
WDIR
 
5-day plot - Wind Speed
WSPD
m/s
5-day plot - Wind Gust
GST
m/s
5-day plot - Wave Height
WVHT
m
5-day plot - Dominant Wave Period
DPD
sec
5-day plot - Average Wave Period
APD
sec
5-day plot - Mean Wave Direction
MWD
 
5-day plot - Atmospheric Pressure
PRES
mb
5-day plot - Pressure Tendency
PTDY
mb
5-day plot - Air Temperature
ATMP
°C
5-day plot - Water Temperature
WTMP
°C
5-day plot - Dew Point
DEWP
°C
5-day plot - Salinity
SAL
psu
5-day plot - Visibility
VIS
km
5-day plot - Tide (above MLLW)
TIDE
m
2024-03-02 02:12 am- 0.0 1.0----1021.1- 18.0 15.3----
2024-03-02 02:06 am NW 0.5 1.5----1021.1- 17.9 15.2----
2024-03-02 02:00 amNNW 1.0 2.1----1020.9 +0.3 17.9 15.2----
2024-03-02 01:54 amNNW 1.0 2.1----1021.0- 17.8 15.2----
2024-03-02 01:48 am NW 1.0 1.5----1021.0- 18.2 15.2----
2024-03-02 01:42 am NW 0.5 1.0----1020.9- 18.9 15.2----
2024-03-02 01:36 am- 0.0 0.0----1020.8- 19.6 15.2----
2024-03-02 01:30 am- 0.0 0.5----1020.8- 19.5 15.2----
2024-03-02 01:24 am- 0.0 1.0----1020.9- 19.5 15.2----
2024-03-02 01:18 amWSW 1.0 1.5----1021.0- 19.3-----
2024-03-02 01:12 amWSW 0.5 1.0----1021.0- 19.6-----
2024-03-02 01:06 am- 0.0 1.5----1020.9- 19.6-----
2024-03-02 01:00 amSSW 0.5 1.0----1020.9 +0.0 19.6 15.3----
2024-03-02 12:54 am- 0.0 1.0----1021.0- 19.5 15.3----
2024-03-02 12:48 amSSW 1.0 1.0----1021.0- 19.5 15.4----
2024-03-02 12:42 am- 0.0 0.5----1020.9- 19.3 15.4----
2024-03-02 12:36 am- 0.0 0.0----1020.9- 19.3 15.5----
2024-03-02 12:30 am- 0.0 0.5----1020.9- 19.3 15.5----
2024-03-02 12:24 am- 0.0 0.5----1020.9- 19.1 15.6----
2024-03-02 12:18 am- 0.0 0.5----1021.0- 19.3 15.6----
2024-03-02 12:12 am- 0.0 1.5----1021.0- 19.7 15.7----
2024-03-02 12:06 am S 1.5 2.1----1021.1- 19.6 15.7----
2024-03-02 12:00 am S 1.5 2.1----1021.0 -0.5 19.6 15.8----
2024-03-01 11:54 pm S 1.0 2.1----1020.9- 19.6 15.8----
2024-03-01 11:48 pm S 1.5 1.5----1020.9- 19.7 15.9----
2024-03-01 11:42 pm S 1.0 1.5----1020.9- 19.7 15.9----
2024-03-01 11:36 pmSSE 0.5 1.0----1020.9- 19.9 16.0----
2024-03-01 11:30 pm S 1.0 1.5----1020.9- 19.5 16.0----
2024-03-01 11:24 pm S 1.0 1.0----1020.8- 19.6 16.1----
2024-03-01 11:18 pmSSE 1.5 2.1----1020.8- 19.6 16.1----
2024-03-01 11:12 pmSSE 1.5 2.1----1020.8- 19.6 16.1----
2024-03-01 11:06 pmSSE 2.1 2.6----1020.7- 19.5 16.1----
2024-03-01 11:00 pmSSE 2.1 3.6----1020.6 -1.2 19.2 16.1----
2024-03-01 10:54 pm SE 1.5 3.1----1020.5- 19.0 16.1----
2024-03-01 10:48 pmESE 1.5 3.1----1020.2- 18.7 16.1----
2024-03-01 10:42 pm SE 2.1 2.6----1020.5- 18.9 16.1----
2024-03-01 10:36 pm SE 1.5 2.1----1021.0- 19.1 16.1----
2024-03-01 10:30 pm S 1.0 3.6----1021.2- 18.8 16.2----
2024-03-01 10:24 pmSSE 2.1 4.6----1020.9- 18.8 16.2----
2024-03-01 10:18 pm SE 2.6 4.1----1020.5- 18.6 16.2----
2024-03-01 10:12 pm SE 2.1 3.1----1020.6- 18.7 16.3----
2024-03-01 10:06 pm SE 2.1 3.1----1020.7- 18.7 16.3----
2024-03-01 10:00 pm SE 2.6 4.1----1020.9 -0.3 18.8 16.3----
2024-03-01 09:54 pm SE 2.6 4.1----1021.0- 18.8 16.3----
2024-03-01 09:48 pm SE 2.6 4.1----1021.0- 18.9 16.4----
2024-03-01 09:42 pmSSE 1.5 3.1----1021.1- 19.0 16.4----
2024-03-01 09:36 pm SE 2.1 3.1----1021.1- 19.1 16.4----
2024-03-01 09:30 pm SE 2.1 2.6----1021.2- 19.1 16.5----
2024-03-01 09:24 pm SE 2.1 2.6----1021.3- 19.2 16.5----
2024-03-01 09:18 pm SE 2.1 2.6----1021.3- 19.2 16.5----
2024-03-01 09:12 pmESE 2.1 2.6----1021.4- 19.4 16.6----
2024-03-01 09:06 pmESE 1.5 3.1----1021.4- 19.4 16.6----
2024-03-01 09:00 pmESE 1.5 2.6----1021.5 +0.6 19.5 16.6----
2024-03-01 08:54 pm E 0.5 1.5----1021.5- 19.7 16.6----
2024-03-01 08:48 pm- 0.0 1.5----1021.5- 19.6 16.6----
2024-03-01 08:42 pm SW 0.5 1.5----1021.6- 19.7 16.6----
2024-03-01 08:36 pmSSW 1.0 2.6----1021.6- 19.8 16.6----
2024-03-01 08:30 pm SW 1.0 3.1----1021.6- 19.9 16.6----
2024-03-01 08:24 pm S 1.5 2.6----1021.6- 20.1 16.6----
2024-03-01 08:18 pmSSE 2.1 3.6----1021.5- 19.9 16.6----
2024-03-01 08:12 pm SE 2.6 4.1----1021.6- 19.8 16.6----
2024-03-01 08:06 pmSSE 3.1 3.6----1021.8- 20.0 16.6----
2024-03-01 08:00 pmSSE 2.6 4.6----1021.8 +0.8 19.8 16.6----
2024-03-01 07:54 pmSSE 3.6 5.1----1021.7- 19.8 16.6----
2024-03-01 07:48 pmSSE 2.6 4.6----1021.6- 19.8 16.6----
2024-03-01 07:42 pmSSE 3.1 4.1----1021.6- 19.7 16.6----
2024-03-01 07:36 pmSSE 3.1 4.6----1021.5- 19.8 16.6----
2024-03-01 07:30 pm SE 3.6 5.7----1021.3- 19.7 16.6----
2024-03-01 07:24 pm SE 3.6 7.2----1021.2- 19.6 16.6----
2024-03-01 07:18 pmSSE 3.6 6.2----1021.3- 19.5 16.6----
2024-03-01 07:12 pmSSE 4.1 6.2----1021.2- 19.5 16.6----
2024-03-01 07:06 pmESE 1.0 2.1----1021.2- 19.7 16.6----
2024-03-01 07:00 pmESE 1.0 2.1----1021.2 +0.0 19.9 16.6----
2024-03-01 06:54 pmSSE 1.0 1.0----1021.3- 20.5 16.6----
2024-03-01 06:48 pmENE 0.5 1.0----1021.1- 20.2 16.6----
2024-03-01 06:42 pm- 0.0 1.0----1021.1- 20.2 16.6----
2024-03-01 06:36 pm- 0.0 1.5----1021.2- 20.0 16.6----
2024-03-01 06:30 pm- 0.0 1.0----1021.0- 19.6 16.6----
2024-03-01 06:24 pm N 0.5 1.0----1020.9- 19.6 16.6----
2024-03-01 06:18 pm- 0.0 0.5----1020.9- 20.1 16.6----
2024-03-01 06:12 pm- 0.0 1.0----1021.0- 20.3 16.5----
2024-03-01 06:06 pm SE 0.5 1.0----1020.9- 20.4 16.5----
2024-03-01 06:00 pmESE 0.5 1.5----1020.9 -0.7 20.4 16.5----
2024-03-01 05:54 pm E 0.5 2.1----1021.0- 20.3 16.5----
2024-03-01 05:48 pmSSE 1.0 1.5----1021.1- 20.3 16.5----
2024-03-01 05:42 pm SE 1.0 2.1----1021.0- 20.3 16.5----
2024-03-01 05:36 pm SE 1.0 2.1----1021.0- 20.2 16.4----
2024-03-01 05:30 pm SE 1.0 2.6----1020.8- 20.0 16.4----
2024-03-01 05:24 pm E 1.0 2.6----1020.8- 19.9 16.4----
2024-03-01 05:18 pm E 1.0 2.1----1021.0- 20.1 16.3----
2024-03-01 05:12 pm E 1.5 2.1----1021.1- 20.0 16.3----
2024-03-01 05:06 pm E 1.0 2.1----1020.9- 20.1 16.3----
2024-03-01 05:00 pmESE 0.5 1.5----1021.0 -1.0 20.2 16.2----
2024-03-01 04:54 pm SE 1.0 2.6----1020.9- 20.1 16.2----
2024-03-01 04:48 pmESE 1.5 2.6----1020.8- 20.0 16.2----
2024-03-01 04:42 pm SE 1.5 2.6----1020.9- 20.1 16.1----
2024-03-01 04:36 pmESE 1.5 2.6----1020.9- 20.0 16.1----
2024-03-01 04:30 pmESE 1.5 2.6----1020.9- 20.2 16.1----
2024-03-01 04:24 pmESE 2.1 3.6----1020.8- 20.3 16.1----
2024-03-01 04:18 pmESE 1.5 4.1----1020.8- 20.3 16.0----
2024-03-01 04:12 pm SE 2.1 4.1----1020.8- 20.4 16.0----
2024-03-01 04:06 pmESE 2.1 3.1----1020.8- 20.4 16.0----
2024-03-01 04:00 pm SE 1.5 3.1----1021.0 -2.0 20.7 16.0----
2024-03-01 03:54 pmESE 1.5 2.6----1021.0- 20.5 16.0----
2024-03-01 03:48 pmESE 1.5 2.6----1021.1- 20.4 16.0----
2024-03-01 03:42 pmESE 2.6 3.1----1021.1- 20.2 16.0----
2024-03-01 03:36 pmESE 2.1 3.1----1021.2- 20.2 16.0----
2024-03-01 03:30 pm SE 1.5 3.6----1021.2- 20.1 16.0----
2024-03-01 03:24 pmESE 1.5 3.1----1021.3- 20.2 15.9----
2024-03-01 03:18 pmESE 2.1 3.1----1021.2- 20.2 15.9----
2024-03-01 03:12 pm E 2.1 2.6----1021.3- 20.2 15.9----
2024-03-01 03:06 pmESE 1.5 3.1----1021.5- 20.2 15.9----
2024-03-01 03:00 pm SE 1.5 2.6----1021.6 -2.0 20.3 15.8----
2024-03-01 02:54 pm SE 1.5 2.6----1021.8- 20.2 15.8----
2024-03-01 02:48 pmESE 1.5 2.6----1021.9- 20.2 15.7----
2024-03-01 02:42 pm SE 2.1 2.6----1022.0- 20.3 15.7----
2024-03-01 02:36 pm SE 2.1 3.6----1021.9- 20.2 15.6----
2024-03-01 02:30 pm SE 1.5 3.6----1021.9- 20.2 15.6----
2024-03-01 02:24 pmSSE 3.1 3.6----1022.0- 20.1 15.5----
2024-03-01 02:18 pmSSE 2.6 3.6----1021.9- 20.4 15.5----
2024-03-01 02:12 pm SE 2.1 4.1----1021.9- 20.2 15.5----
2024-03-01 02:06 pmESE 2.6 4.1----1021.9- 20.5 15.5----
2024-03-01 02:00 pm SE 2.1 4.1----1022.0 -1.9 20.6 15.4----
2024-03-01 01:54 pm SE 2.1 4.1----1022.2- 20.6 15.4----
2024-03-01 01:48 pm-------1022.2- 20.7 15.4----
2024-03-01 01:42 pm SE 2.6 3.6----1022.2- 20.7 15.3----
2024-03-01 01:36 pmSSE 2.6 3.6----1022.2- 20.4 15.3----
2024-03-01 01:30 pmSSE 2.1 3.1----1022.3- 20.1 15.3----
2024-03-01 01:24 pmSSE 2.1 4.1----1022.3- 19.7 15.3----
2024-03-01 01:18 pm-------1022.5- 19.5 15.3----
2024-03-01 01:12 pm SE 2.1 4.6----1022.7- 19.4 15.3----
2024-03-01 01:06 pm SE 3.6 5.7----1022.8- 19.4 15.3----
2024-03-01 01:00 pmSSE 3.6 5.7----1023.0 -1.1 19.6 15.3----
2024-03-01 12:54 pm SE 3.1 5.1----1023.1- 19.7 15.3----
2024-03-01 12:48 pmSSE 2.6 5.1----1023.1- 19.9 15.3----
2024-03-01 12:42 pmSSE 2.6 6.2----1023.2- 19.8 15.3----
2024-03-01 12:36 pmSSE 4.1 5.7----1023.3- 19.9 15.3----
2024-03-01 12:30 pm-------1023.2- 20.1 15.4----
2024-03-01 12:24 pmSSE 3.6 6.2----1023.2- 20.0 15.4----
2024-03-01 12:18 pm-------1023.2- 20.0 15.4----
2024-03-01 12:12 pmSSE 2.6 5.7----1023.3- 20.1 15.4----
2024-03-01 12:06 pmSSE 4.1 5.7----1023.4- 20.1 15.4----
2024-03-01 12:00 pmSSE 2.6 4.1----1023.6 -0.5 20.1 15.4----
2024-03-01 11:54 am SE 2.6 5.7----1023.7- 20.2 15.5----
2024-03-01 11:48 am S 3.1 4.6----1023.7- 20.2 15.5----
2024-03-01 11:42 amSSE 3.1 5.1----1023.7- 20.4 15.5----
2024-03-01 11:36 amSSE 2.6 4.6----1023.7- 20.4 15.6----
2024-03-01 11:30 am-------1023.9- 20.3 15.6----
2024-03-01 11:24 amSSE 2.1 3.1----1024.0- 20.4 15.6----
2024-03-01 11:18 am-------1023.8- 20.3 15.6----
2024-03-01 11:12 am E 2.6 3.6----1023.9- 20.4 15.6----
2024-03-01 11:06 am E 2.6 4.1----1023.9- 20.2 15.7----
2024-03-01 11:00 amESE 1.5 3.1----1023.9 +0.0 20.4 15.7----
2024-03-01 10:54 amESE 2.1 4.1----1023.8- 20.3 15.7----
2024-03-01 10:48 amESE 1.5 3.1----1023.7- 20.0 15.7----
2024-03-01 10:42 am E 2.6 4.6----1023.6- 19.7 15.7----
2024-03-01 10:36 am E 2.6 6.2----1023.7- 19.7 15.7----
2024-03-01 10:30 am E 2.6 4.6----1023.8- 20.0 15.7----
2024-03-01 10:24 amESE 2.1 5.1----1024.0- 20.0 15.7----
2024-03-01 10:18 am E 3.1 5.1----1024.0- 19.9 15.8----
2024-03-01 10:12 amESE 2.6 4.1----1024.2- 19.7 15.8----
2024-03-01 10:06 am E 2.6 5.1----1024.1- 19.7 15.8----
2024-03-01 10:00 am E 2.6 6.2----1024.1 +0.5 19.6 15.9----
2024-03-01 09:54 am E 2.6 4.6----1024.1- 19.4 15.9----
2024-03-01 09:48 am E 2.6 4.6----1024.3- 19.2 16.0----
2024-03-01 09:42 amENE 2.1 4.1----1024.4- 19.2 16.0----
2024-03-01 09:36 am E 2.1 3.6----1024.5- 19.2 16.1----
2024-03-01 09:30 am E 1.5 3.6----1024.6- 19.2 16.1----
2024-03-01 09:24 amENE 2.1 3.6----1024.5- 19.2 16.2----
2024-03-01 09:18 am-------1024.5- 19.2 16.2----
2024-03-01 09:12 am E 2.1 4.6----1024.4- 19.2 16.2----
2024-03-01 09:06 am E 2.6 5.7----1024.2- 19.1 16.2----
2024-03-01 09:00 am E 3.1 5.7----1024.1 +0.4 19.1 16.2----
2024-03-01 08:54 am E 3.1 6.7----1024.1- 19.0 16.2----
2024-03-01 08:48 am-------1024.2- 18.8 16.2----
2024-03-01 08:42 am E 4.1 6.2----1024.2- 18.7 16.2----
2024-03-01 08:36 amENE 3.1 6.2----1024.0- 18.6 16.2----
2024-03-01 08:30 am-------1023.9- 18.5 16.2----
2024-03-01 08:24 amENE 3.1 5.7----1024.0- 18.5 16.2----
2024-03-01 08:18 amENE 4.1 7.2----1023.9- 18.6 16.2----
2024-03-01 08:12 am-------1023.8- 18.5 16.2----
2024-03-01 08:06 amENE 3.1 6.2----1023.6- 18.5 16.2----
2024-03-01 08:00 am-------1023.7 -0.6 18.4 16.2----
2024-03-01 07:54 amENE 2.1 5.7----1023.6- 18.4 16.2----
2024-03-01 07:48 am-------1023.5- 18.2 16.2----
2024-03-01 07:42 am NE 2.1 5.7----1023.4- 18.2 16.2----
2024-03-01 07:36 amENE 1.5 4.1----1023.7- 17.9 16.2----
2024-03-01 07:30 am NE 2.1 3.6----1023.7- 17.6 16.2----
2024-03-01 07:24 am NE 2.1 3.6----1023.6- 17.4 16.2----
2024-03-01 07:18 am-------1023.7- 17.1 16.2----
2024-03-01 07:12 am NE 1.0 2.6----1023.8- 16.9 16.2----
2024-03-01 07:06 am NE 2.1 3.6----1023.7- 16.7 16.2----
2024-03-01 07:00 amNNE 1.0 2.6----1023.6 -0.6 16.6 16.2----
2024-03-01 06:54 am-------1023.6- 16.6 16.2----
2024-03-01 06:48 am NE 1.5 3.1----1023.5- 16.6 16.2----
2024-03-01 06:42 amENE 1.5 3.1----1023.5- 16.5 16.2----
2024-03-01 06:36 am NE 1.5 4.6----1023.5- 16.3 16.2----
2024-03-01 06:30 am NE 2.6 4.1----1023.5- 16.2 16.2----
2024-03-01 06:24 am NE 3.1 4.6----1023.4- 16.1 16.2----
2024-03-01 06:18 am-------1023.6- 16.1 16.2----
2024-03-01 06:12 amNNE 2.6 5.1----1023.6- 16.1 16.2----
2024-03-01 06:06 am NE 2.1 3.6----1023.7- 16.1 16.1----
2024-03-01 06:00 am-------1023.7 -1.5 16.1 16.1----
2024-03-01 05:54 amNNE 2.1 4.6----1023.7- 16.0 16.1----
2024-03-01 05:48 am-------1023.8- 16.0 16.1----
2024-03-01 05:42 amNNE 2.6 5.7----1024.0- 16.2 16.1----
2024-03-01 05:36 amNNE 3.1 5.1----1024.0- 16.2 16.0----
2024-03-01 05:30 amNNE 3.6 5.7----1023.8- 16.1 16.0----
2024-03-01 05:24 amNNE 3.1 6.7----1024.0- 16.1 16.0----
2024-03-01 05:18 am-------1023.8- 15.9 15.9----
2024-03-01 05:12 amNNE 4.1 6.7----1023.9- 15.9 15.9----
2024-03-01 05:06 amNNE 4.1 6.7----1024.1- 16.0 15.9----
2024-03-01 05:00 amNNE 4.1 5.7----1024.3 -1.3 16.0 15.8----
2024-03-01 04:54 am-------1024.3- 16.0 15.8----
2024-03-01 04:48 am-------1024.4- 16.0 15.8----
2024-03-01 04:42 amNNE 4.1 6.7----1024.3- 16.0 15.7----
2024-03-01 04:36 amNNE 3.1 8.2----1024.4- 15.9 15.7----
2024-03-01 04:30 am-------1024.3- 15.8 15.7----
2024-03-01 04:24 amNNE 3.1 7.2----1024.2- 15.7 15.7----
2024-03-01 04:18 am-------1024.2- 15.7 15.7----
2024-03-01 04:12 amNNE 3.6 8.2----1024.1- 15.6 15.6----
2024-03-01 04:06 amNNE 3.6 7.2----1024.1- 15.6 15.6----
2024-03-01 04:00 amNNE 4.6 7.2----1024.2 -1.7 15.5 15.6----
2024-03-01 03:54 am-------1024.2- 15.4 15.6----
2024-03-01 03:48 am-------1024.4- 15.3 15.6----
2024-03-01 03:42 am-------1024.4- 15.3 15.5----
2024-03-01 03:36 amNNE 5.1 9.3----1024.3- 15.2 15.5----
2024-03-01 03:30 amNNE 4.6 7.7----1024.4- 15.1 15.5----
2024-03-01 03:24 am-------1024.6- 15.0 15.5----
2024-03-01 03:18 am-------1024.6- 15.1 15.5----
2024-03-01 03:12 am-------1024.7- 15.1 15.4----
2024-03-01 03:06 am-------1025.0- 15.1 15.4----
2024-03-01 03:00 amNNE 3.6 6.7----1025.2 -1.0 15.1 15.4----
2024-03-01 02:54 am-------1025.2- 15.1 15.3----
2024-03-01 02:48 am-------1025.2- 15.0 15.3----
2024-03-01 02:42 am-------1025.2- 14.9 15.3----
2024-03-01 02:36 amNNE 2.6 5.1----1025.2- 14.9 15.2----
2024-03-01 02:30 am N 4.1 6.7----1025.2- 14.8 15.2----
2024-03-01 02:24 am-------1025.3- 14.8 15.2----
2024-03-01 02:18 am-------1025.4- 14.8 15.1----
2024-03-01 02:12 am-------1025.5- 14.8 15.1----
2024-03-01 02:06 am-------1025.7- 14.8 15.1----
2024-03-01 02:00 am N 6.2 8.8----1025.6 -0.7 14.9 15.1----
2024-03-01 01:54 am N 4.6 7.7----1025.6- 14.9 15.0----